Location: Poughquag
(41.6090°N, 73.6820°W)
Time: 18:35:51
(UTC-04:00)

N. Korean satellite - Visible Passes

Search period start: 16 October 2018 00:00
Search period end: 26 October 2018 00:00
Orbit: 459 x 510 km, 97.2° (Epoch: 15 October)

Date Brightness Start Highest point End Pass type
(mag) Time Alt. Az. Time Alt. Az. Time Alt. Az.
16 Oct 10.4 19:44:21 10° WSW 19:45:27 11° W 19:46:33 10° WNW visible
17 Oct 9.5 19:17:56 10° SW 19:20:50 21° W 19:23:46 10° NW visible
18 Oct 8.1 18:52:46 10° S 18:56:18 42° W 18:59:54 10° NNW visible
19 Oct 10.1 06:20:33 10° NE 06:22:43 15° E 06:24:52 10° SE visible
20 Oct 10.3 19:39:32 10° WSW 19:41:11 12° W 19:42:49 10° WNW visible
21 Oct 9.3 19:13:31 10° SSW 19:16:34 24° W 19:19:39 10° NW visible
22 Oct 9.3 06:39:56 10° NE 06:43:01 26° E 06:46:03 10° SSE visible
22 Oct 7.8 18:48:27 10° S 18:52:03 48° W 18:55:42 10° NNW visible
23 Oct 10.2 06:16:37 10° ENE 06:18:24 13° E 06:20:11 10° ESE visible
23 Oct 6.6 18:23:53 10° SSE 18:27:37 80° ENE 18:31:22 10° N visible
24 Oct 10.2 19:34:52 10° SW 19:36:52 14° W 19:38:53 10° WNW visible
25 Oct 9.1 19:09:04 10° SSW 19:12:16 27° W 19:15:29 10° NW visible
